Regional Weather Roundup
Issued by NWS

Home | Current Version | Previous Version | Graphics & Text | Print | Product List | Glossary On
Versions: 1 2 3 4 5 6 7 8 9 10 11 12 13 14 15 16 17 18 19 20 21 22 23 24 25 26 27 28 29 30 31 32 33 34 35 36 37 38 39 40 41 42 43 44 45 46 47 48 49 50
808
ASUS43 KIND 220409
RWRIN

WEATHER ROUNDUP FOR INDIANA
NATIONAL WEATHER SERVICE INDIANAPOLIS IN
1200 AM EDT SUN APR 22 2018

NOTE: "FAIR" INDICATES FEW OR NO CLOUDS BELOW 12,000 FEET WITH NO
SIGNIFICANT WEATHER AND/OR OBSTRUCTIONS TO VISIBILITY.

* - STATION DOES NOT REPORT WEATHER SUCH AS PRECIPITATION OR FOG.

+ - STATION NOT QUALITY CONTROLLED BY THE NATIONAL WEATHER SERVICE.
    USE DATA WITH CAUTION...ESPECIALLY DEWPOINT AND RELATIVE
    HUMIDITY OBSERVATIONS.

INZ001>003-010>013-019-020-220500-
NORTHWEST INDIANA

CITY           SKY/WX    TMP DP  RH WIND       PRES   REMARKS
GARY /AIRPORT/ FAIR      43  27  53 NE5       30.39F
KNOX *+        FAIR      43  34  70 NE6       30.37F
LA PORTE +     FAIR      44  30  56 CALM      30.39S
MICHIGAN CITY+ FAIR      41  30  65 CALM      30.39S
MONTICELLO +   FAIR      48  25  40 E6        30.33F
RENSSELAER +   FAIR      45  23  42 NE9       30.35F
VALPARAISO     FAIR      45  29  53 N5        30.37F

$$

LMZ046-743>745-220500-
SOUTHERN LAKE MICHIGAN

STATION/POSITION TIME  TEMP    WIND        PRES    WAVE
                       AIR SEA DIR/SP/G            HT
                 (UTC) (F)     (DEG/KT/KT) (MB)    (FT)
BURNS HARBOR     0340   42      60/  6/  7 1029.5S
MICHIGAN CITY    0340   41      30/  7/  7   N/A

$$

INZ004-005-014>016-021>024-220500-
NORTH CENTRAL INDIANA

CITY           SKY/WX    TMP DP  RH WIND       PRES   REMARKS
GOSHEN         FAIR      45  33  63 CALM      30.37S
LOGANSPORT +   FAIR      48  27  43 NE7       30.36S
PERU/GRISSOM   CLOUDY   N/A N/A N/A NE9         N/A
ROCHESTER +    FAIR      48  32  53 E3        30.38S
SOUTH BEND     FAIR      42  29  59 CALM      30.39S
WARSAW +       FAIR      45  30  57 CALM      30.38S

$$

INZ006>009-017-018-025>027-220500-
NORTHEAST INDIANA

CITY           SKY/WX    TMP DP  RH WIND       PRES   REMARKS
AUBURN +       FAIR      46  27  46 CALM      30.40R
FORT WAYNE     CLOUDY    47  31  53 E8        30.39R
HUNTINGTON +   FAIR      47  28  48 E3        30.37S

$$

INZ028-029-035-036-043>045-051>053-220500-
WEST CENTRAL INDIANA

CITY           SKY/WX    TMP DP  RH WIND       PRES   REMARKS
CRAWFORDSVL +  FAIR      48  30  48 E7        30.33R
GREENCASTLE +  FAIR      50  27  40 E5        30.32S
LAFAYETTE      FAIR      49  27  42 E8        30.34R
TERRE HAUTE    FAIR      54  27  35 E8        30.29F

$$

INZ030>032-037>040-046>048-054>057-064-065-220500-
CENTRAL INDIANA

CITY           SKY/WX    TMP DP  RH WIND       PRES   REMARKS
FISHERS *+     FAIR      50  30  46 E5        30.34
FRANKFORT +    FAIR      51  29  43 E10       30.35S
GREENWOOD *+   FAIR      50  26  39 E7        30.32S
INDIANAPOLIS   CLOUDY    53  24  32 E10       30.32F
-EAGLE CREEK   FAIR      53  25  33 NE8       30.31F
KOKOMO +       FAIR      44  31  60 NE8       30.35F
MARION +       FAIR      47  28  48 CALM      30.36S
MT COMFORT *+  FAIR      45  36  70 E8        30.32F
SHELBYVILLE    FAIR      50  29  44 NE10      30.30F
ZIONSVILLE +   FAIR      49  27  43 E8        30.34S

$$

INZ033-034-041-042-049-050-058-059-220500-
EAST CENTRAL INDIANA

CITY           SKY/WX    TMP DP  RH WIND       PRES   REMARKS
MUNCIE         FAIR      49  29  46 E9        30.35S
RICHMOND +     FAIR      43  32  65 E9        30.33F

$$

INZ060-061-067>069-081>083-085>088-220500-
SOUTHWEST INDIANA

CITY           SKY/WX    TMP DP  RH WIND       PRES   REMARKS
EVANSVILLE     FAIR      57  36  45 NE13      30.22F
HUNTINGBURG +  FAIR      56  32  40 E10       30.26F
WASHINGTON +   FAIR      54  28  37 E7        30.27F

$$

INZ062-063-066-070>080-084-089>092-220500-
SOUTH CENTRAL AND SOUTHEAST INDIANA

CITY           SKY/WX    TMP DP  RH WIND       PRES   REMARKS
BATESVILLE +   PTCLDY    50  27  40 MISG      30.31F
BEDFORD +      FAIR      54  21  28 NE10      30.30S
BLOOMINGTON    FAIR      54  25  32 E8        30.30F
FRENCH LICK *+ FAIR      54  18  24 NE13      30.28S
MADISON *+     FAIR      52  21  30 NE8       30.32R
NORTH VERNON + FAIR      50  25  37 E7        30.31F
SEYMOUR +      FAIR      54  28  37 E6        30.31S

$$





USA.gov is the U.S. government's official web portal to all federal, state and local government web resources and services.